{"data":{"norad_id":58473,"epoch":"2026-05-24T23:44:33.715104Z","epoch_age_seconds":69229,"freshness":"FRESH","line1":"1 58473U 23186A   26144.98927911  .00001978  00000+0  81455-4 0  9991","line2":"2 58473  43.0036 356.2998 0001889 273.5647  86.4988 15.27559137137523","mean_motion":15.27559137,"eccentricity":0.0001889,"inclination_deg":43.0036,"raan_deg":356.2998,"arg_perigee_deg":273.5647,"mean_anomaly_deg":86.4988,"bstar":8.1455e-5,"rev_number":13752,"period_min":94.268036184055,"perigee_km":481.81547822358,"apogee_km":484.4076579326,"semimajor_km":6861.2485680781,"source":"CELESTRAK","updated_at":"2026-05-25T13:38:18.648533Z"}}